When you browse on this site, cookies collect data to enhance your experience and personalize the content and advertising you see.
Visit our Privacy Policy to learn more. By continuing to use the site, you agree to this use of cookies and data.

Hourly Weather Liverpool

Today, 4 July, Saturday

Time Temperature Precipitation Wind Pressure Humidity
00:00 +17°C° 0 mm 4 mps 753 mmHg 92%
01:00 +17°C° 0.4 mm 4 mps 753 mmHg 92%
02:00 +17°C° 0.4 mm 4 mps 752 mmHg 92%
03:00 +17°C° 0.4 mm 4 mps 752 mmHg 92%
04:00 +17°C° 0.3 mm 4 mps 752 mmHg 92%
05:00 +17°C° 0.3 mm 4 mps 752 mmHg 92%
06:00 +17°C° 0 mm 4 mps 753 mmHg 89%
07:00 +17°C° 0.1 mm 4 mps 753 mmHg 86%
08:00 +17°C° 0.1 mm 5 mps 753 mmHg 84%
09:00 +19°C° 0.1 mm 5 mps 753 mmHg 81%
10:00 +19°C° 0.1 mm 5 mps 753 mmHg 81%
11:00 +19°C° 0.1 mm 5 mps 753 mmHg 81%
12:00 +19°C° 0.1 mm 4 mps 753 mmHg 81%
13:00 +19°C° 0 mm 4 mps 753 mmHg 81%
14:00 +19°C° 0 mm 4 mps 753 mmHg 81%
15:00 +18°C° 0 mm 4 mps 753 mmHg 81%
16:00 +18°C° 0 mm 4 mps 753 mmHg 81%
17:00 +18°C° 0 mm 4 mps 753 mmHg 82%
18:00 +18°C° 0 mm 4 mps 752 mmHg 83%
19:00 +18°C° 0 mm 4 mps 752 mmHg 83%
20:00 +17°C° 0 mm 5 mps 752 mmHg 82%
21:00 +17°C° 0 mm 6 mps 752 mmHg 82%
22:00 +17°C° 0.1 mm 6 mps 751 mmHg 83%
23:00 +17°C° 0.1 mm 7 mps 751 mmHg 85%

Tomorrow, 5 July, Sunday

Time Temperature Precipitation Wind Pressure Humidity
00:00 +17°C° 0.1 mm 8 mps 750 mmHg 86%
01:00 +17°C° 0.1 mm 8 mps 750 mmHg 84%
02:00 +17°C° 0.1 mm 9 mps 750 mmHg 82%
03:00 +16°C° 0.1 mm 9 mps 750 mmHg 80%
04:00 +16°C° 0.1 mm 9 mps 751 mmHg 78%
05:00 +15°C° 0.1 mm 9 mps 752 mmHg 76%
06:00 +13°C° 0.1 mm 9 mps 752 mmHg 73%
07:00 +13°C° 0.1 mm 9 mps 753 mmHg 70%
08:00 +13°C° 0.1 mm 9 mps 753 mmHg 67%
09:00 +13°C° 0.1 mm 9 mps 754 mmHg 63%
10:00 +15°C° 0.1 mm 9 mps 754 mmHg 62%
11:00 +15°C° 0.1 mm 9 mps 754 mmHg 60%
12:00 +16°C° 0.1 mm 9 mps 754 mmHg 58%
13:00 +16°C° 0.2 mm 9 mps 754 mmHg 59%
14:00 +16°C° 0.2 mm 9 mps 754 mmHg 60%
15:00 +16°C° 0.2 mm 10 mps 754 mmHg 61%
16:00 +14°C° 0.3 mm 10 mps 754 mmHg 62%
17:00 +14°C° 0.3 mm 10 mps 754 mmHg 64%
18:00 +14°C° 0.3 mm 10 mps 754 mmHg 65%
19:00 +13°C° 0.3 mm 10 mps 754 mmHg 68%
20:00 +12°C° 0.3 mm 10 mps 755 mmHg 71%
21:00 +12°C° 0.3 mm 10 mps 755 mmHg 74%
22:00 +11°C° 0.2 mm 9 mps 755 mmHg 76%
23:00 +11°C° 0.2 mm 9 mps 756 mmHg 77%

Day after tomorrow, 6 July, Monday

Time Temperature Precipitation Wind Pressure Humidity
00:00 +11°C° 0.2 mm 9 mps 756 mmHg 79%
01:00 +11°C° 0.1 mm 9 mps 757 mmHg 78%
02:00 +11°C° 0.1 mm 9 mps 757 mmHg 76%
03:00 +11°C° 0.1 mm 9 mps 757 mmHg 75%
04:00 +11°C° 0.1 mm 10 mps 758 mmHg 76%
05:00 +11°C° 0.1 mm 10 mps 758 mmHg 77%
06:00 +11°C° 0.1 mm 11 mps 759 mmHg 78%
07:00 +12°C° 0.1 mm 10 mps 759 mmHg 76%
08:00 +13°C° 0.1 mm 9 mps 760 mmHg 75%
09:00 +13°C° 0.1 mm 9 mps 761 mmHg 73%
10:00 +15°C° 0.1 mm 8 mps 762 mmHg 70%
11:00 +16°C° 0.1 mm 8 mps 762 mmHg 67%
12:00 +16°C° 0.1 mm 8 mps 763 mmHg 63%
13:00 +16°C° 0 mm 8 mps 763 mmHg 61%
14:00 +16°C° 0 mm 8 mps 764 mmHg 58%
15:00 +16°C° 0 mm 7 mps 764 mmHg 55%
16:00 +16°C° 0 mm 7 mps 765 mmHg 57%
17:00 +15°C° 0 mm 6 mps 765 mmHg 59%
18:00 +15°C° 0 mm 5 mps 765 mmHg 61%
19:00 +14°C° 0 mm 5 mps 765 mmHg 65%
20:00 +13°C° 0 mm 4 mps 766 mmHg 70%
21:00 +11°C° 0 mm 4 mps 766 mmHg 75%
22:00 +11°C° 0 mm 4 mps 766 mmHg 76%
23:00 +11°C° 0 mm 3 mps 766 mmHg 78%

7 July, Tuesday

Time Temperature Precipitation Wind Pressure Humidity
00:00 +10°C° 0 mm 3 mps 766 mmHg 79%
01:00 +10°C° 0 mm 3 mps 766 mmHg 80%
02:00 +10°C° 0 mm 3 mps 766 mmHg 82%
03:00 +10°C° 0 mm 2 mps 766 mmHg 83%
04:00 +10°C° 0 mm 2 mps 766 mmHg 82%
05:00 +12°C° 0 mm 2 mps 766 mmHg 81%
06:00 +13°C° 0 mm 2 mps 765 mmHg 80%
07:00 +13°C° 0 mm 3 mps 765 mmHg 74%
08:00 +14°C° 0 mm 3 mps 765 mmHg 68%
09:00 +15°C° 0 mm 4 mps 765 mmHg 62%
10:00 +15°C° 0 mm 4 mps 765 mmHg 62%
11:00 +17°C° 0 mm 4 mps 765 mmHg 62%
12:00 +17°C° 0 mm 4 mps 764 mmHg 62%
13:00 +15°C° 0 mm 4 mps 764 mmHg 62%
14:00 +16°C° 0 mm 3 mps 764 mmHg 63%
15:00 +16°C° 0 mm 3 mps 763 mmHg 63%
16:00 +14°C° 0.2 mm 3 mps 763 mmHg 66%
17:00 +14°C° 0.2 mm 4 mps 762 mmHg 68%
18:00 +14°C° 0.2 mm 4 mps 762 mmHg 70%
19:00 +14°C° 0.9 mm 5 mps 761 mmHg 76%
20:00 +14°C° 0.9 mm 5 mps 761 mmHg 81%
21:00 +14°C° 0.9 mm 5 mps 761 mmHg 87%
22:00 +14°C° 0.1 mm 5 mps 760 mmHg 87%
23:00 +14°C° 0.1 mm 6 mps 760 mmHg 86%

8 July, Wednesday

Time Temperature Precipitation Wind Pressure Humidity
00:00 +15°C° 0.1 mm 6 mps 759 mmHg 86%
01:00 +15°C° 0 mm 7 mps 759 mmHg 85%
02:00 +15°C° 0 mm 7 mps 758 mmHg 84%
03:00 +16°C° 0 mm 7 mps 758 mmHg 84%
04:00 +16°C° 0.3 mm 8 mps 758 mmHg 85%
05:00 +16°C° 0.3 mm 8 mps 758 mmHg 87%
06:00 +16°C° 0.3 mm 8 mps 757 mmHg 88%
07:00 +16°C° 0.1 mm 8 mps 757 mmHg 87%
08:00 +16°C° 0.1 mm 8 mps 757 mmHg 87%
09:00 +17°C° 0.1 mm 8 mps 757 mmHg 86%
10:00 +17°C° 0 mm 8 mps 757 mmHg 80%
11:00 +17°C° 0 mm 8 mps 758 mmHg 74%
12:00 +17°C° 0 mm 8 mps 758 mmHg 68%
13:00 +17°C° 0 mm 8 mps 758 mmHg 67%
14:00 +17°C° 0 mm 7 mps 758 mmHg 67%
15:00 +16°C° 0 mm 7 mps 758 mmHg 67%
16:00 +16°C° 0 mm 6 mps 759 mmHg 67%
17:00 +16°C° 0 mm 6 mps 759 mmHg 67%
18:00 +16°C° 0 mm 5 mps 759 mmHg 67%
19:00 +15°C° 0 mm 5 mps 759 mmHg 70%
20:00 +14°C° 0 mm 4 mps 760 mmHg 74%
21:00 +13°C° 0 mm 3 mps 760 mmHg 77%
22:00 +13°C° 0 mm 3 mps 760 mmHg 78%
23:00 +14°C° 0 mm 2 mps 760 mmHg 79%

9 July, Thursday

Time Temperature Precipitation Wind Pressure Humidity
00:00 +14°C° 0 mm 2 mps 760 mmHg 80%
01:00 +13°C° 0 mm 2 mps 760 mmHg 81%
02:00 +13°C° 0 mm 2 mps 760 mmHg 82%
03:00 +12°C° 0 mm 1 mps 760 mmHg 83%
04:00 +13°C° 0 mm 1 mps 760 mmHg 83%
05:00 +13°C° 0 mm 1 mps 760 mmHg 83%
06:00 +13°C° 0 mm 1 mps 760 mmHg 82%
07:00 +14°C° 0 mm 1 mps 760 mmHg 76%
08:00 +16°C° 0 mm 1 mps 760 mmHg 70%
09:00 +18°C° 0 mm 1 mps 760 mmHg 63%
10:00 +19°C° 0 mm 1 mps 760 mmHg 61%
11:00 +19°C° 0 mm 1 mps 759 mmHg 58%
12:00 +20°C° 0 mm 1 mps 759 mmHg 55%
13:00 +18°C° 0.2 mm 2 mps 759 mmHg 62%
14:00 +17°C° 0.2 mm 3 mps 759 mmHg 69%
15:00 +15°C° 0.2 mm 4 mps 759 mmHg 76%
16:00 +15°C° 0.3 mm 4 mps 759 mmHg 73%
17:00 +15°C° 0.3 mm 4 mps 759 mmHg 70%
18:00 +14°C° 0.3 mm 4 mps 759 mmHg 66%
19:00 +14°C° 0 mm 4 mps 759 mmHg 68%
20:00 +13°C° 0 mm 4 mps 760 mmHg 70%
21:00 +12°C° 0 mm 4 mps 760 mmHg 72%
22:00 +12°C° 0 mm 5 mps 760 mmHg 74%
23:00 +10°C° 0 mm 5 mps 760 mmHg 76%
Show more